When you browse on this site, cookies collect data to enhance your experience and personalize the content and advertising you see.
Visit our Privacy Policy to learn more. By continuing to use the site, you agree to this use of cookies and data.
EN

Hourly Weather Luchesa

Today, 12 July, Sunday

Time Temperature Precipitation Wind Pressure Humidity
00:00 +14°C° 0.2 mm 3 mps 749 mmHg 80%
01:00 +15°C° 0.2 mm 2 mps 749 mmHg 80%
02:00 +15°C° 0 mm 1 mps 749 mmHg 81%
03:00 +15°C° 0.1 mm 1 mps 749 mmHg 83%
04:00 +14°C° 0.1 mm 1 mps 749 mmHg 86%
05:00 +14°C° 0.1 mm 1 mps 749 mmHg 89%
06:00 +15°C° 0.1 mm 1 mps 749 mmHg 88%
07:00 +15°C° 0.1 mm 1 mps 749 mmHg 87%
08:00 +15°C° 0.1 mm 1 mps 749 mmHg 86%
09:00 +15°C° 0.3 mm 2 mps 749 mmHg 89%
10:00 +15°C° 0.3 mm 2 mps 749 mmHg 91%
11:00 +13°C° 0.3 mm 3 mps 749 mmHg 94%
12:00 +13°C° 0.4 mm 3 mps 749 mmHg 94%
13:00 +13°C° 0.4 mm 3 mps 749 mmHg 95%
14:00 +13°C° 0.4 mm 3 mps 749 mmHg 96%
15:00 +12°C° 0.7 mm 3 mps 749 mmHg 96%
16:00 +13°C° 0.7 mm 2 mps 749 mmHg 96%
17:00 +13°C° 0.7 mm 2 mps 749 mmHg 97%
18:00 +13°C° 0.2 mm 2 mps 749 mmHg 96%
19:00 +13°C° 0.2 mm 2 mps 749 mmHg 96%
20:00 +12°C° 0.2 mm 2 mps 749 mmHg 96%
21:00 +12°C° 0.1 mm 2 mps 749 mmHg 96%
22:00 +12°C° 0.1 mm 2 mps 748 mmHg 96%
23:00 +12°C° 0.1 mm 2 mps 748 mmHg 96%

Tomorrow, 13 July, Monday

Time Temperature Precipitation Wind Pressure Humidity
00:00 +12°C° 0 mm 2 mps 748 mmHg 96%
01:00 +10°C° 0 mm 2 mps 748 mmHg 95%
02:00 +10°C° 0 mm 2 mps 748 mmHg 95%
03:00 +10°C° 0 mm 2 mps 748 mmHg 95%
04:00 +9°C° 0 mm 2 mps 748 mmHg 95%
05:00 +9°C° 0 mm 2 mps 747 mmHg 95%
06:00 +12°C° 0 mm 2 mps 747 mmHg 92%
07:00 +13°C° 0 mm 2 mps 748 mmHg 90%
08:00 +15°C° 0 mm 2 mps 748 mmHg 87%
09:00 +16°C° 0.1 mm 2 mps 748 mmHg 81%
10:00 +17°C° 0.1 mm 2 mps 747 mmHg 76%
11:00 +19°C° 0.1 mm 3 mps 747 mmHg 70%
12:00 +19°C° 0.2 mm 3 mps 747 mmHg 69%
13:00 +19°C° 0.2 mm 3 mps 747 mmHg 68%
14:00 +20°C° 0.2 mm 3 mps 747 mmHg 68%
15:00 +20°C° 0.1 mm 3 mps 747 mmHg 68%
16:00 +20°C° 0.1 mm 3 mps 746 mmHg 69%
17:00 +20°C° 0.1 mm 3 mps 746 mmHg 69%
18:00 +18°C° 0.1 mm 3 mps 746 mmHg 75%
19:00 +17°C° 0.1 mm 2 mps 746 mmHg 80%
20:00 +15°C° 0.1 mm 2 mps 746 mmHg 86%
21:00 +15°C° 0 mm 2 mps 746 mmHg 87%
22:00 +14°C° 0 mm 2 mps 746 mmHg 88%
23:00 +13°C° 0 mm 2 mps 746 mmHg 89%

Day after tomorrow, 14 July, Tuesday

Time Temperature Precipitation Wind Pressure Humidity
00:00 +12°C° 0 mm 2 mps 746 mmHg 89%
01:00 +12°C° 0 mm 2 mps 746 mmHg 90%
02:00 +10°C° 0 mm 2 mps 746 mmHg 90%
03:00 +10°C° 0 mm 2 mps 746 mmHg 90%
04:00 +10°C° 0 mm 2 mps 746 mmHg 90%
05:00 +10°C° 0 mm 2 mps 746 mmHg 89%
06:00 +13°C° 0 mm 2 mps 746 mmHg 83%
07:00 +14°C° 0 mm 3 mps 746 mmHg 77%
08:00 +17°C° 0 mm 3 mps 746 mmHg 71%
09:00 +18°C° 0 mm 3 mps 746 mmHg 66%
10:00 +20°C° 0 mm 3 mps 746 mmHg 61%
11:00 +21°C° 0 mm 4 mps 746 mmHg 56%
12:00 +21°C° 0 mm 4 mps 746 mmHg 56%
13:00 +22°C° 0 mm 4 mps 746 mmHg 55%
14:00 +22°C° 0 mm 4 mps 746 mmHg 54%
15:00 +22°C° 0 mm 4 mps 745 mmHg 57%
16:00 +21°C° 0 mm 3 mps 745 mmHg 61%
17:00 +21°C° 0 mm 3 mps 745 mmHg 64%
18:00 +19°C° 0 mm 3 mps 745 mmHg 68%
19:00 +18°C° 0 mm 3 mps 745 mmHg 73%
20:00 +16°C° 0 mm 3 mps 745 mmHg 77%
21:00 +14°C° 0 mm 3 mps 745 mmHg 77%
22:00 +13°C° 0 mm 3 mps 745 mmHg 76%
23:00 +13°C° 0 mm 3 mps 745 mmHg 76%

15 July, Wednesday

Time Temperature Precipitation Wind Pressure Humidity
00:00 +12°C° 0 mm 3 mps 745 mmHg 75%
01:00 +11°C° 0 mm 3 mps 745 mmHg 74%
02:00 +10°C° 0 mm 3 mps 745 mmHg 73%
03:00 +10°C° 0 mm 3 mps 745 mmHg 77%
04:00 +10°C° 0 mm 3 mps 745 mmHg 80%
05:00 +10°C° 0 mm 3 mps 745 mmHg 83%
06:00 +11°C° 0 mm 3 mps 745 mmHg 79%
07:00 +13°C° 0 mm 3 mps 745 mmHg 76%
08:00 +15°C° 0 mm 4 mps 745 mmHg 72%
09:00 +17°C° 0 mm 4 mps 745 mmHg 67%
10:00 +18°C° 0 mm 4 mps 745 mmHg 63%
11:00 +19°C° 0 mm 4 mps 745 mmHg 58%
12:00 +20°C° 0 mm 4 mps 745 mmHg 57%
13:00 +20°C° 0 mm 4 mps 745 mmHg 56%
14:00 +21°C° 0 mm 4 mps 745 mmHg 55%
15:00 +21°C° 0 mm 3 mps 745 mmHg 58%
16:00 +21°C° 0 mm 3 mps 745 mmHg 61%
17:00 +21°C° 0 mm 3 mps 744 mmHg 64%
18:00 +19°C° 0 mm 2 mps 744 mmHg 69%
19:00 +18°C° 0 mm 2 mps 744 mmHg 74%
20:00 +16°C° 0 mm 1 mps 744 mmHg 78%
21:00 +15°C° 0 mm 2 mps 744 mmHg 80%
22:00 +14°C° 0 mm 2 mps 744 mmHg 82%
23:00 +13°C° 0 mm 2 mps 744 mmHg 84%

16 July, Thursday

Time Temperature Precipitation Wind Pressure Humidity
00:00 +13°C° 0 mm 2 mps 744 mmHg 84%
01:00 +13°C° 0 mm 2 mps 744 mmHg 83%
02:00 +12°C° 0 mm 2 mps 744 mmHg 83%
03:00 +12°C° 0 mm 2 mps 744 mmHg 83%
04:00 +12°C° 0 mm 2 mps 743 mmHg 82%
05:00 +12°C° 0 mm 2 mps 743 mmHg 82%
06:00 +14°C° 0 mm 2 mps 743 mmHg 78%
07:00 +15°C° 0 mm 2 mps 743 mmHg 75%
08:00 +17°C° 0 mm 2 mps 743 mmHg 71%
09:00 +18°C° 0 mm 2 mps 743 mmHg 67%
10:00 +20°C° 0 mm 2 mps 743 mmHg 62%
11:00 +21°C° 0 mm 3 mps 743 mmHg 58%
12:00 +22°C° 0 mm 3 mps 742 mmHg 56%
13:00 +22°C° 0 mm 3 mps 742 mmHg 54%
14:00 +24°C° 0 mm 2 mps 742 mmHg 51%
15:00 +23°C° 0 mm 2 mps 742 mmHg 54%
16:00 +23°C° 0 mm 2 mps 741 mmHg 56%
17:00 +23°C° 0 mm 2 mps 741 mmHg 59%
18:00 +22°C° 0 mm 1 mps 741 mmHg 64%
19:00 +20°C° 0 mm 1 mps 741 mmHg 69%
20:00 +18°C° 0 mm 1 mps 741 mmHg 74%
21:00 +16°C° 0 mm 1 mps 741 mmHg 78%
22:00 +15°C° 0 mm 1 mps 741 mmHg 81%
23:00 +13°C° 0 mm 0 mps 741 mmHg 84%

17 July, Friday

Time Temperature Precipitation Wind Pressure Humidity
00:00 +13°C° 0 mm 1 mps 741 mmHg 86%
01:00 +13°C° 0 mm 1 mps 741 mmHg 88%
02:00 +13°C° 0 mm 1 mps 741 mmHg 90%
03:00 +13°C° 0 mm 2 mps 741 mmHg 90%
04:00 +13°C° 0 mm 2 mps 740 mmHg 91%
05:00 +13°C° 0 mm 2 mps 740 mmHg 91%
06:00 +13°C° 0 mm 3 mps 740 mmHg 86%
07:00 +16°C° 0 mm 3 mps 741 mmHg 82%
08:00 +17°C° 0 mm 3 mps 741 mmHg 77%
09:00 +18°C° 0 mm 3 mps 741 mmHg 73%
10:00 +19°C° 0 mm 3 mps 741 mmHg 70%
11:00 +20°C° 0 mm 3 mps 741 mmHg 67%
12:00 +20°C° 0.4 mm 3 mps 741 mmHg 69%
13:00 +20°C° 0.4 mm 2 mps 741 mmHg 71%
14:00 +20°C° 0.4 mm 2 mps 741 mmHg 74%
15:00 +19°C° 0.5 mm 2 mps 741 mmHg 78%
16:00 +18°C° 0.5 mm 2 mps 741 mmHg 82%
17:00 +18°C° 0.5 mm 1 mps 741 mmHg 86%
18:00 +18°C° 0.2 mm 1 mps 741 mmHg 88%
19:00 +16°C° 0.2 mm 1 mps 741 mmHg 89%
20:00 +15°C° 0.2 mm 1 mps 741 mmHg 90%
21:00 +15°C° 0.1 mm 1 mps 741 mmHg 91%
22:00 +15°C° 0.1 mm 1 mps 742 mmHg 91%
23:00 +15°C° 0.1 mm 1 mps 742 mmHg 91%
Show more